Year,Month,Day,Hour,Minute,Value (Times are PST for temperature in C)
2014,06,13,07,38,13.10
2014,06,13,07,39,13.10
2014,06,13,07,40,13.10
2014,06,13,07,41,13.20
2014,06,13,07,42,13.20
2014,06,13,07,43,13.20
2014,06,13,07,44,13.20
2014,06,13,07,45,13.20
2014,06,13,07,46,13.20
2014,06,13,07,47,13.20
2014,06,13,07,48,13.20
2014,06,13,07,49,13.20
2014,06,13,07,50,13.20
2014,06,13,07,51,13.30
2014,06,13,07,52,13.30
2014,06,13,07,53,13.30
2014,06,13,07,54,13.30
2014,06,13,07,55,13.30
2014,06,13,07,56,13.30
2014,06,13,07,57,13.30
2014,06,13,07,58,13.30
2014,06,13,07,59,13.30
2014,06,13,08,00,13.30
2014,06,13,08,01,13.30
2014,06,13,08,02,13.30
2014,06,13,08,03,13.30
2014,06,13,08,04,13.40
2014,06,13,08,05,13.40
2014,06,13,08,06,13.40
2014,06,13,08,07,13.40
2014,06,13,08,08,13.40
2014,06,13,08,09,13.40
2014,06,13,08,10,13.40
2014,06,13,08,11,13.40
2014,06,13,08,12,13.40
2014,06,13,08,13,13.40
2014,06,13,08,14,13.40
2014,06,13,08,15,13.40
2014,06,13,08,16,13.40
2014,06,13,08,17,13.50
2014,06,13,08,18,13.40
2014,06,13,08,19,13.50
2014,06,13,08,20,13.50
2014,06,13,08,21,13.50
2014,06,13,08,22,13.50
2014,06,13,08,23,13.50
2014,06,13,08,24,13.50
2014,06,13,08,25,13.50
2014,06,13,08,26,13.60
2014,06,13,08,27,13.60
2014,06,13,08,28,13.60
2014,06,13,08,29,13.60
2014,06,13,08,30,13.60
2014,06,13,08,31,13.60
2014,06,13,08,32,13.60
2014,06,13,08,33,13.60
2014,06,13,08,34,13.60
2014,06,13,08,35,13.60
2014,06,13,08,36,13.60
2014,06,13,08,37,13.70
2014,06,13,08,38,13.70
2014,06,13,08,39,13.70
2014,06,13,08,40,13.70
2014,06,13,08,41,13.70
2014,06,13,08,42,13.80
2014,06,13,08,43,13.80
2014,06,13,08,44,13.80
2014,06,13,08,45,13.80
2014,06,13,08,46,13.80
2014,06,13,08,47,13.90
2014,06,13,08,48,13.90
2014,06,13,08,49,13.90
2014,06,13,08,50,13.90
2014,06,13,08,51,13.90
2014,06,13,08,52,13.90
2014,06,13,08,53,14.00
2014,06,13,08,54,14.00
2014,06,13,08,55,14.00
2014,06,13,08,56,14.00
2014,06,13,08,57,14.00
2014,06,13,08,58,14.10
2014,06,13,08,59,14.10
2014,06,13,09,00,14.10
2014,06,13,09,01,14.10
2014,06,13,09,02,14.10
2014,06,13,09,03,14.10
2014,06,13,09,04,14.10
2014,06,13,09,05,14.10
2014,06,13,09,06,14.10
2014,06,13,09,07,14.10
2014,06,13,09,08,14.10
2014,06,13,09,09,14.10
2014,06,13,09,10,14.10
2014,06,13,09,11,14.10
2014,06,13,09,12,14.20
2014,06,13,09,13,14.20
2014,06,13,09,14,14.20
2014,06,13,09,15,14.20
2014,06,13,09,16,14.20
2014,06,13,09,17,14.20
2014,06,13,09,18,14.20
2014,06,13,09,19,14.20
2014,06,13,09,20,14.20
2014,06,13,09,21,14.20
2014,06,13,09,22,14.20
2014,06,13,09,23,14.20
2014,06,13,09,24,14.20
2014,06,13,09,25,14.20
2014,06,13,09,26,14.20
2014,06,13,09,27,14.20
2014,06,13,09,28,14.20
2014,06,13,09,29,14.20
2014,06,13,09,30,14.20
2014,06,13,09,31,14.20
2014,06,13,09,32,14.30
2014,06,13,09,33,14.30
2014,06,13,09,34,14.30
2014,06,13,09,35,14.40
2014,06,13,09,36,14.40
2014,06,13,09,37,14.50
2014,06,13,09,38,14.50
2014,06,13,09,39,14.60
2014,06,13,09,40,14.60
2014,06,13,09,41,14.60
2014,06,13,09,42,14.60
2014,06,13,09,43,14.70
2014,06,13,09,44,14.70
2014,06,13,09,45,14.70
2014,06,13,09,46,14.70
2014,06,13,09,47,14.80
2014,06,13,09,48,14.80
2014,06,13,09,49,14.80
2014,06,13,09,50,14.80
2014,06,13,09,51,14.80
2014,06,13,09,52,14.80
2014,06,13,09,53,14.90
2014,06,13,09,54,14.90
2014,06,13,09,55,14.90
2014,06,13,09,56,14.90
2014,06,13,09,57,14.90
2014,06,13,09,58,14.90
2014,06,13,09,59,14.90
2014,06,13,10,00,15.00
2014,06,13,10,01,15.00
2014,06,13,10,02,15.00
2014,06,13,10,03,15.10
2014,06,13,10,04,15.10
2014,06,13,10,05,15.10
2014,06,13,10,06,15.10
2014,06,13,10,07,15.10
2014,06,13,10,08,15.10
2014,06,13,10,09,15.10
2014,06,13,10,10,15.10
2014,06,13,10,11,15.10
2014,06,13,10,12,15.20
2014,06,13,10,13,15.20
2014,06,13,10,14,15.20
2014,06,13,10,15,15.10
2014,06,13,10,16,15.10
2014,06,13,10,17,15.20
2014,06,13,10,18,15.20
2014,06,13,10,19,15.20
2014,06,13,10,20,15.20
2014,06,13,10,21,15.30
2014,06,13,10,22,15.30
2014,06,13,10,23,15.30
2014,06,13,10,24,15.40
2014,06,13,10,25,15.50
2014,06,13,10,26,15.50
2014,06,13,10,27,15.60
2014,06,13,10,28,15.70
2014,06,13,10,29,15.70
2014,06,13,10,30,15.80
2014,06,13,10,31,15.80
2014,06,13,10,32,15.80
2014,06,13,10,33,15.70
2014,06,13,10,34,15.70
2014,06,13,10,35,15.70
2014,06,13,10,36,15.70
2014,06,13,10,37,15.60
2014,06,13,10,38,15.60
2014,06,13,10,39,15.60
2014,06,13,10,40,15.60
2014,06,13,10,41,15.70
2014,06,13,10,42,15.70
2014,06,13,10,43,15.70
2014,06,13,10,44,15.80
2014,06,13,10,45,15.80
2014,06,13,10,46,15.80
2014,06,13,10,47,15.80
2014,06,13,10,48,15.80
2014,06,13,10,49,15.80
2014,06,13,10,50,15.80
2014,06,13,10,51,15.80
2014,06,13,10,52,15.80
2014,06,13,10,53,15.80
2014,06,13,10,54,15.80
2014,06,13,10,55,15.80
2014,06,13,10,56,15.80
2014,06,13,10,57,15.80
2014,06,13,10,58,15.80
2014,06,13,10,59,15.90
2014,06,13,11,00,15.90
2014,06,13,11,01,16.00
2014,06,13,11,02,16.00
2014,06,13,11,03,16.10
2014,06,13,11,04,16.20
2014,06,13,11,05,16.20
2014,06,13,11,06,16.20
2014,06,13,11,07,16.20
2014,06,13,11,08,16.20
2014,06,13,11,09,16.20
2014,06,13,11,10,16.30
2014,06,13,11,11,16.30
2014,06,13,11,12,16.30
2014,06,13,11,13,16.30
2014,06,13,11,14,16.20
2014,06,13,11,15,16.20
2014,06,13,11,16,16.20
2014,06,13,11,17,16.20
2014,06,13,11,18,16.20
2014,06,13,11,19,16.20
2014,06,13,11,20,16.20
2014,06,13,11,21,16.20
2014,06,13,11,22,16.20
2014,06,13,11,23,16.20
2014,06,13,11,24,16.20
2014,06,13,11,25,16.30
2014,06,13,11,26,16.30
2014,06,13,11,27,16.40
2014,06,13,11,28,16.40
2014,06,13,11,29,16.40
2014,06,13,11,30,16.40
2014,06,13,11,31,16.50
2014,06,13,11,32,16.50
2014,06,13,11,33,16.60
2014,06,13,11,34,16.60
2014,06,13,11,35,16.60
2014,06,13,11,36,16.70
2014,06,13,11,37,16.60
2014,06,13,11,38,16.50
2014,06,13,11,39,16.50
2014,06,13,11,40,16.50
2014,06,13,11,41,16.50
2014,06,13,11,42,16.50
2014,06,13,11,43,16.50
2014,06,13,11,44,16.60
2014,06,13,11,45,16.60
2014,06,13,11,46,16.60
2014,06,13,11,47,16.60
2014,06,13,11,48,16.60
2014,06,13,11,49,16.70
2014,06,13,11,50,16.70
2014,06,13,11,51,16.80
2014,06,13,11,52,16.80
2014,06,13,11,53,16.80
2014,06,13,11,54,16.80
2014,06,13,11,55,16.90
2014,06,13,11,56,16.90
2014,06,13,11,57,17.00
2014,06,13,11,58,17.10
2014,06,13,11,59,17.20
2014,06,13,12,00,17.20
2014,06,13,12,01,17.30
2014,06,13,12,02,17.40
2014,06,13,12,03,17.40
2014,06,13,12,04,17.50
2014,06,13,12,05,17.60
2014,06,13,12,06,17.70
2014,06,13,12,07,17.70
2014,06,13,12,08,17.80
2014,06,13,12,09,17.80
2014,06,13,12,10,17.80
2014,06,13,12,11,17.80
2014,06,13,12,12,17.70
2014,06,13,12,13,17.70
2014,06,13,12,14,17.70
2014,06,13,12,15,17.60
2014,06,13,12,16,17.60
2014,06,13,12,17,17.50
2014,06,13,12,18,17.50
2014,06,13,12,19,17.40
2014,06,13,12,20,17.30
2014,06,13,12,21,17.30
2014,06,13,12,22,17.30
2014,06,13,12,23,17.30
2014,06,13,12,24,17.30
2014,06,13,12,25,17.40
2014,06,13,12,26,17.30
2014,06,13,12,27,17.30
2014,06,13,12,28,17.40
2014,06,13,12,29,17.40
2014,06,13,12,30,17.40
2014,06,13,12,31,17.40
2014,06,13,12,32,17.40
2014,06,13,12,33,17.40
2014,06,13,12,34,17.50
2014,06,13,12,35,17.50
2014,06,13,12,36,17.50
2014,06,13,12,37,17.50
2014,06,13,12,38,17.40
2014,06,13,12,39,17.40
2014,06,13,12,40,17.30
2014,06,13,12,41,17.30
2014,06,13,12,42,17.30
2014,06,13,12,43,17.30
2014,06,13,12,44,17.30
2014,06,13,12,45,17.30
2014,06,13,12,46,17.30
2014,06,13,12,47,17.40
2014,06,13,12,48,17.40
2014,06,13,12,49,17.40
2014,06,13,12,50,17.50
2014,06,13,12,51,17.60
2014,06,13,12,52,17.60
2014,06,13,12,53,17.60
2014,06,13,12,54,17.60
2014,06,13,12,55,17.60
2014,06,13,12,56,17.60
2014,06,13,12,57,17.70
2014,06,13,12,58,17.70
2014,06,13,12,59,17.80
2014,06,13,13,00,17.90
2014,06,13,13,01,17.90
2014,06,13,13,02,17.90
2014,06,13,13,03,17.90
2014,06,13,13,04,18.00
2014,06,13,13,05,18.00
2014,06,13,13,06,18.00
2014,06,13,13,07,18.00
2014,06,13,13,08,18.10
2014,06,13,13,09,18.10
2014,06,13,13,10,18.10
2014,06,13,13,11,18.10
2014,06,13,13,12,18.20
2014,06,13,13,13,18.20
2014,06,13,13,14,18.20
2014,06,13,13,15,18.20
2014,06,13,13,16,18.10
2014,06,13,13,17,18.10
2014,06,13,13,18,18.10
2014,06,13,13,19,18.10
2014,06,13,13,20,18.10
2014,06,13,13,21,18.10
2014,06,13,13,22,18.20
2014,06,13,13,23,18.20
2014,06,13,13,24,18.20
2014,06,13,13,25,18.10
2014,06,13,13,26,18.10
2014,06,13,13,27,18.10
2014,06,13,13,28,18.10
2014,06,13,13,29,18.10
2014,06,13,13,30,18.10
2014,06,13,13,31,18.20
2014,06,13,13,32,18.20
2014,06,13,13,33,18.20
2014,06,13,13,34,18.20
2014,06,13,13,35,18.10
2014,06,13,13,36,18.10
2014,06,13,13,37,18.10
2014,06,13,13,38,18.10
2014,06,13,13,39,18.10
2014,06,13,13,40,18.10
2014,06,13,13,41,18.10
2014,06,13,13,42,18.10
2014,06,13,13,43,18.10
2014,06,13,13,44,18.10
2014,06,13,13,45,18.00
2014,06,13,13,46,18.00
2014,06,13,13,47,17.90
2014,06,13,13,48,17.90
2014,06,13,13,49,17.90
2014,06,13,13,50,17.90
2014,06,13,13,51,17.90
2014,06,13,13,52,17.80
2014,06,13,13,53,17.80
2014,06,13,13,54,17.80
2014,06,13,13,55,17.80
2014,06,13,13,56,17.90
2014,06,13,13,57,18.00
2014,06,13,13,58,18.00
2014,06,13,13,59,18.10
2014,06,13,14,00,18.00
2014,06,13,14,01,17.80
2014,06,13,14,02,17.70
2014,06,13,14,03,17.70
2014,06,13,14,04,17.60
2014,06,13,14,05,17.60
2014,06,13,14,06,17.60
2014,06,13,14,07,17.70
2014,06,13,14,08,17.70
2014,06,13,14,09,17.70
2014,06,13,14,10,17.70
2014,06,13,14,11,17.70
2014,06,13,14,12,17.70
2014,06,13,14,13,17.70
2014,06,13,14,14,17.80
2014,06,13,14,15,17.80
2014,06,13,14,16,17.80
2014,06,13,14,17,17.80
2014,06,13,14,18,17.80
2014,06,13,14,19,17.70
2014,06,13,14,20,17.70
2014,06,13,14,21,17.70
2014,06,13,14,22,17.70
2014,06,13,14,23,17.70
2014,06,13,14,24,17.70
2014,06,13,14,25,17.70
2014,06,13,14,26,17.60
2014,06,13,14,27,17.50
2014,06,13,14,28,17.50
2014,06,13,14,29,17.50
2014,06,13,14,30,17.40
2014,06,13,14,31,17.40
2014,06,13,14,32,17.40
2014,06,13,14,33,17.40
2014,06,13,14,34,17.40
2014,06,13,14,35,17.40
2014,06,13,14,36,17.40
2014,06,13,14,37,17.40
2014,06,13,14,38,17.40
2014,06,13,14,39,17.50
2014,06,13,14,40,17.50
2014,06,13,14,41,17.40
2014,06,13,14,42,17.40
2014,06,13,14,43,17.40
2014,06,13,14,44,17.40
2014,06,13,14,45,17.50
2014,06,13,14,46,17.50
2014,06,13,14,47,17.60
2014,06,13,14,48,17.60
2014,06,13,14,49,17.60
2014,06,13,14,50,17.60
2014,06,13,14,51,17.60
2014,06,13,14,52,17.70
2014,06,13,14,53,17.70
2014,06,13,14,54,17.60
2014,06,13,14,55,17.60
2014,06,13,14,56,17.50
2014,06,13,14,57,17.50
2014,06,13,14,58,17.40
2014,06,13,14,59,17.40
2014,06,13,15,00,17.30
2014,06,13,15,01,17.30
2014,06,13,15,02,17.40
2014,06,13,15,03,17.40
2014,06,13,15,04,17.30
2014,06,13,15,05,17.30
2014,06,13,15,06,17.30
2014,06,13,15,07,17.30
2014,06,13,15,08,17.30
2014,06,13,15,09,17.30
2014,06,13,15,10,17.30
2014,06,13,15,11,17.30
2014,06,13,15,12,17.30
2014,06,13,15,13,17.40
2014,06,13,15,14,17.30
2014,06,13,15,15,17.30
2014,06,13,15,16,17.30
2014,06,13,15,17,17.20
2014,06,13,15,18,17.10
2014,06,13,15,19,17.20
2014,06,13,15,20,17.20
2014,06,13,15,21,17.20
2014,06,13,15,22,17.20
2014,06,13,15,23,17.30
2014,06,13,15,24,17.30
2014,06,13,15,25,17.20
2014,06,13,15,26,17.20
2014,06,13,15,27,17.10
2014,06,13,15,28,17.00
2014,06,13,15,29,17.00
2014,06,13,15,30,17.00
2014,06,13,15,31,17.00
2014,06,13,15,32,17.00
2014,06,13,15,33,17.10
2014,06,13,15,34,17.20
2014,06,13,15,35,17.30
2014,06,13,15,36,17.40
2014,06,13,15,37,17.30
2014,06,13,15,38,17.30
2014,06,13,15,39,17.30
2014,06,13,15,40,17.30
2014,06,13,15,41,17.30
2014,06,13,15,42,17.30
2014,06,13,15,43,17.30
2014,06,13,15,44,17.30
2014,06,13,15,45,17.30
2014,06,13,15,46,17.40
2014,06,13,15,47,17.40
2014,06,13,15,48,17.40
2014,06,13,15,49,17.30
2014,06,13,15,50,17.30
2014,06,13,15,51,17.30
2014,06,13,15,52,17.30
2014,06,13,15,53,17.40
2014,06,13,15,54,17.40
2014,06,13,15,55,17.40
2014,06,13,15,56,17.50
2014,06,13,15,57,17.50
2014,06,13,15,58,17.50
2014,06,13,15,59,17.40
2014,06,13,16,00,17.20
2014,06,13,16,01,17.20
2014,06,13,16,02,17.10
2014,06,13,16,03,17.00
2014,06,13,16,04,17.10
2014,06,13,16,05,17.00
2014,06,13,16,06,17.00
2014,06,13,16,07,17.00
2014,06,13,16,08,16.90
2014,06,13,16,09,17.00
2014,06,13,16,10,17.00
2014,06,13,16,11,17.10
2014,06,13,16,12,17.10
2014,06,13,16,13,17.00
2014,06,13,16,14,17.00
2014,06,13,16,15,17.00
2014,06,13,16,16,17.00
2014,06,13,16,17,17.10
2014,06,13,16,18,17.10
2014,06,13,16,19,17.20
2014,06,13,16,20,17.20
2014,06,13,16,21,17.20
2014,06,13,16,22,17.20
2014,06,13,16,23,17.20
2014,06,13,16,24,17.20
2014,06,13,16,25,17.20
2014,06,13,16,26,17.10
2014,06,13,16,27,17.10
2014,06,13,16,28,17.10
2014,06,13,16,29,17.20
2014,06,13,16,30,17.20
2014,06,13,16,31,17.20
2014,06,13,16,32,17.20
2014,06,13,16,33,17.10
2014,06,13,16,34,17.00
2014,06,13,16,35,17.00
2014,06,13,16,36,17.00
2014,06,13,16,37,16.90
2014,06,13,16,38,16.90
2014,06,13,16,39,16.80
2014,06,13,16,40,16.80
2014,06,13,16,41,16.90
2014,06,13,16,42,16.90
2014,06,13,16,43,16.90
2014,06,13,16,44,16.90
2014,06,13,16,45,16.80
2014,06,13,16,46,16.80
2014,06,13,16,47,16.80
2014,06,13,16,48,16.80
2014,06,13,16,49,16.90
2014,06,13,16,50,16.90
2014,06,13,16,51,16.90
2014,06,13,16,52,16.90
2014,06,13,16,53,16.90
2014,06,13,16,54,16.90
2014,06,13,16,55,16.90
2014,06,13,16,56,16.90
2014,06,13,16,57,16.90
2014,06,13,16,58,16.90
2014,06,13,16,59,16.90
2014,06,13,17,00,16.80
2014,06,13,17,01,16.80
2014,06,13,17,02,16.70
2014,06,13,17,03,16.70
2014,06,13,17,04,16.70
2014,06,13,17,05,16.70
2014,06,13,17,06,16.60
2014,06,13,17,07,16.60
2014,06,13,17,08,16.60
2014,06,13,17,09,16.60
2014,06,13,17,10,16.60
2014,06,13,17,11,16.60
2014,06,13,17,12,16.50
2014,06,13,17,13,16.50
2014,06,13,17,14,16.40
2014,06,13,17,15,16.40
2014,06,13,17,16,16.40
2014,06,13,17,17,16.30
2014,06,13,17,18,16.20
2014,06,13,17,19,16.20
2014,06,13,17,20,16.20
2014,06,13,17,21,16.20
2014,06,13,17,22,16.20
2014,06,13,17,23,16.20
2014,06,13,17,24,16.10
2014,06,13,17,25,16.10
2014,06,13,17,26,16.10
2014,06,13,17,27,16.10
2014,06,13,17,28,16.20
2014,06,13,17,29,16.20
2014,06,13,17,30,16.20
2014,06,13,17,31,16.20
2014,06,13,17,32,16.10
2014,06,13,17,33,16.10
2014,06,13,17,34,16.10
2014,06,13,17,35,16.10
2014,06,13,17,36,16.10
2014,06,13,17,37,16.10
2014,06,13,17,38,16.10
2014,06,13,17,39,16.10
2014,06,13,17,40,16.10
2014,06,13,17,41,16.10
2014,06,13,17,42,16.00
2014,06,13,17,43,16.00
2014,06,13,17,44,16.00
2014,06,13,17,45,16.00
2014,06,13,17,46,16.00
2014,06,13,17,47,16.00
2014,06,13,17,48,16.00
2014,06,13,17,49,15.90
2014,06,13,17,50,15.90
2014,06,13,17,51,15.90
2014,06,13,17,52,15.90
2014,06,13,17,53,15.90
2014,06,13,17,54,15.90
2014,06,13,17,55,15.90
2014,06,13,17,56,15.90
2014,06,13,17,57,15.90
2014,06,13,17,58,15.90
2014,06,13,17,59,15.90
2014,06,13,18,00,15.90
2014,06,13,18,01,15.90
2014,06,13,18,02,15.90
2014,06,13,18,03,15.80
2014,06,13,18,04,15.80
2014,06,13,18,05,15.70
2014,06,13,18,06,15.70
2014,06,13,18,07,15.70
2014,06,13,18,08,15.60
2014,06,13,18,09,15.60
2014,06,13,18,10,15.60
2014,06,13,18,11,15.60
2014,06,13,18,12,15.60
2014,06,13,18,13,15.60
2014,06,13,18,14,15.60
2014,06,13,18,15,15.50
2014,06,13,18,16,15.50
2014,06,13,18,17,15.50
2014,06,13,18,18,15.50
2014,06,13,18,19,15.50
2014,06,13,18,20,15.50
2014,06,13,18,21,15.50
2014,06,13,18,22,15.50
2014,06,13,18,23,15.50
2014,06,13,18,24,15.40
2014,06,13,18,25,15.40
2014,06,13,18,26,15.40
2014,06,13,18,27,15.40
2014,06,13,18,28,15.30
2014,06,13,18,29,15.30
2014,06,13,18,30,15.30
2014,06,13,18,31,15.30
2014,06,13,18,32,15.20
2014,06,13,18,33,15.20
2014,06,13,18,34,15.20
2014,06,13,18,35,15.30
2014,06,13,18,36,15.20
2014,06,13,18,37,15.20
2014,06,13,18,38,15.20
2014,06,13,18,39,15.20
2014,06,13,18,40,15.20
2014,06,13,18,41,15.20
2014,06,13,18,42,15.20
2014,06,13,18,43,15.20
2014,06,13,18,44,15.20
2014,06,13,18,45,15.10
2014,06,13,18,46,15.10
2014,06,13,18,47,15.10
2014,06,13,18,48,15.10
2014,06,13,18,49,15.10
2014,06,13,18,50,15.10
2014,06,13,18,51,15.10
2014,06,13,18,52,15.10
2014,06,13,18,53,15.20
2014,06,13,18,54,15.20
2014,06,13,18,55,15.20
2014,06,13,18,56,15.20
2014,06,13,18,57,15.20
2014,06,13,18,58,15.20
2014,06,13,18,59,15.20
2014,06,13,19,00,15.10
2014,06,13,19,01,15.10
2014,06,13,19,02,15.10
2014,06,13,19,03,15.00
2014,06,13,19,04,15.00
2014,06,13,19,05,15.00
2014,06,13,19,06,15.10
2014,06,13,19,07,15.10
2014,06,13,19,08,15.00
2014,06,13,19,09,14.90
2014,06,13,19,10,14.90
2014,06,13,19,11,14.90
2014,06,13,19,12,14.90
2014,06,13,19,13,14.80
2014,06,13,19,14,14.80
2014,06,13,19,15,14.80
2014,06,13,19,16,14.80
2014,06,13,19,17,14.80
2014,06,13,19,18,14.80
2014,06,13,19,19,14.80
2014,06,13,19,20,14.70
2014,06,13,19,21,14.80
2014,06,13,19,22,14.80
2014,06,13,19,23,14.80
2014,06,13,19,24,14.80
2014,06,13,19,25,14.80
2014,06,13,19,26,14.70
2014,06,13,19,27,14.70
2014,06,13,19,28,14.70
2014,06,13,19,29,14.70
2014,06,13,19,30,14.70
2014,06,13,19,31,14.60
2014,06,13,19,32,14.60
2014,06,13,19,33,14.50
2014,06,13,19,34,14.50
2014,06,13,19,35,14.40
2014,06,13,19,36,14.40
2014,06,13,19,37,14.40
2014,06,13,19,38,14.40
2014,06,13,19,39,14.40
2014,06,13,19,40,14.40
2014,06,13,19,41,14.40
2014,06,13,19,42,14.40
2014,06,13,19,43,14.40
2014,06,13,19,44,14.40
2014,06,13,19,45,14.40
2014,06,13,19,46,14.40
2014,06,13,19,47,14.40
2014,06,13,19,48,14.40
2014,06,13,19,49,14.40
2014,06,13,19,50,14.40
2014,06,13,19,51,14.40
2014,06,13,19,52,14.40
2014,06,13,19,53,14.40
